Date,TemperatureHighF,TemperatureAvgF,TemperatureLowF,DewpointHighF,DewpointAvgF,DewpointLowF,HumidityHigh,HumidityAvg,HumidityLow,PressureMaxIn,PressureMinIn,WindSpeedMaxMPH,WindSpeedAvgMPH,GustSpeedMaxMPH,PrecipitationSumIn
2013-1-1,41.2,33.8,29.3,35.6,30.4,26.8,91,87,76,30.80,30.65,4,0,4,0.00
2013-1-2,44.8,35.2,30.2,37.4,30.2,26.0,92,82,57,30.65,30.49,3,0,3,0.00
2013-1-3,45.4,35.5,27.7,34.0,29.7,24.9,91,80,56,30.50,30.40,4,0,4,0.14
2013-1-4,47.9,42.2,37.1,44.6,39.6,33.9,94,90,84,30.62,30.47,3,0,3,0.08
2013-1-5,45.0,42.3,40.1,38.2,37.2,35.2,90,82,74,30.51,30.41,6,0,6,0.10
2013-1-6,45.7,42.4,39.6,41.6,39.3,36.9,92,89,82,30.50,30.30,5,0,5,0.25
2013-1-7,50.2,46.6,40.7,47.3,43.6,38.5,94,89,82,30.47,30.12,14,2,14,0.28
2013-1-8,53.3,47.6,42.1,49.1,44.5,39.6,96,89,82,30.47,30.05,11,2,11,0.22
2013-1-9,50.0,41.1,35.8,48.1,39.0,33.7,94,92,90,30.26,29.97,8,1,8,0.70
2013-1-10,38.9,36.1,32.0,36.8,34.2,30.1,94,93,92,30.42,30.24,2,0,2,0.06
2013-1-11,33.8,30.2,27.4,31.8,28.2,25.1,93,92,91,30.64,30.41,2,0,2,0.00
2013-1-12,34.9,28.1,26.5,29.7,25.7,24.2,92,90,80,30.74,30.62,2,0,2,0.00
2013-1-13,35.5,29.6,24.1,31.1,26.4,21.1,92,88,81,30.79,30.73,1,0,1,0.01
2013-1-14,36.4,34.3,32.2,33.1,31.2,29.1,90,88,86,30.87,30.77,0,0,0,0.00
2013-1-15,42.8,36.3,31.7,36.8,32.7,28.9,92,87,72,31.00,30.87,2,0,2,0.00
2013-1-16,42.1,34.2,27.7,36.6,30.8,25.1,91,87,79,30.98,30.82,4,0,4,0.00
2013-1-17,36.9,32.7,29.2,34.7,30.5,26.9,94,92,89,30.83,30.60,2,0,2,0.00
2013-1-18,36.2,32.4,29.7,34.4,30.6,27.9,94,93,92,30.66,30.56,2,0,2,0.00
2013-1-19,34.2,31.5,28.4,32.0,29.5,26.6,93,92,92,30.70,30.64,2,0,2,0.00
2013-1-20,37.4,31.9,28.8,34.9,29.9,26.8,93,92,90,30.70,30.57,2,0,2,0.00
2013-1-21,34.9,32.2,29.2,33.3,30.4,27.4,94,93,92,30.58,30.44,2,0,2,0.00
2013-1-22,37.1,32.7,28.1,35.2,31.0,26.1,94,93,92,30.45,30.21,3,0,3,0.00
2013-1-23,42.5,39.7,35.5,40.6,36.8,32.6,95,90,77,30.44,30.14,4,0,4,0.29
2013-1-24,46.1,42.3,38.5,40.7,39.3,35.8,93,89,78,30.52,30.36,5,0,5,0.22
2013-1-25,50.2,44.9,41.9,47.3,42.9,39.8,95,93,87,30.37,30.24,5,0,5,0.19
2013-1-26,44.5,42.2,39.6,42.1,39.9,37.7,94,91,88,30.34,30.19,7,0,7,0.37
2013-1-27,42.7,41.3,40.1,40.0,38.9,37.9,93,91,87,30.37,30.30,9,1,9,0.14
2013-1-28,42.7,41.2,39.2,40.9,39.4,37.4,94,93,93,30.40,30.31,5,0,5,0.42
2013-1-29,47.0,44.6,42.1,45.4,43.1,40.5,95,94,94,30.65,30.39,5,0,5,0.82
2013-1-30,48.4,47.1,44.8,47.1,45.7,43.2,96,95,94,30.69,30.63,3,0,3,0.24
2013-1-31,49.7,47.7,46.6,46.7,45.9,45.0,96,94,86,30.70,30.61,7,0,7,0.14
2013-2-1,50.8,46.3,42.1,47.7,44.3,40.2,95,93,84,30.71,30.64,3,0,3,0.01
2013-2-2,43.2,40.6,38.2,41.4,38.9,36.5,95,94,92,30.69,30.56,3,0,3,0.00
2013-2-3,49.3,43.8,38.9,46.5,41.7,37.0,95,92,87,30.61,30.51,5,0,5,0.09
2013-2-4,51.1,46.6,44.3,45.5,43.5,42.0,93,89,78,30.52,30.19,3,0,3,0.00
2013-2-5,50.4,46.6,44.3,45.0,43.0,41.0,92,87,78,30.25,30.15,10,1,10,0.29
2013-2-6,50.0,45.1,44.1,42.0,41.1,40.3,88,86,73,30.35,30.11,9,2,9,0.05
2013-2-7,50.6,44.0,36.9,41.2,37.6,33.0,89,78,64,30.49,30.10,10,1,10,0.13
2013-2-8,45.2,38.9,32.8,40.0,34.9,29.9,91,85,77,30.61,30.50,3,0,3,0.00
2013-2-9,44.3,41.9,39.6,41.6,39.2,36.6,93,90,86,30.64,30.56,2,0,2,0.06
2013-2-10,47.0,40.7,35.1,41.0,37.6,33.2,94,89,77,30.68,30.62,4,0,4,0.01
2013-2-11,47.2,43.2,39.8,41.7,39.7,37.1,92,87,79,30.66,30.63,3,0,3,0.02
2013-2-12,49.3,46.5,43.4,46.5,43.7,40.2,94,90,86,30.71,30.60,9,1,9,0.07
2013-2-13,49.0,45.7,44.1,45.5,43.0,41.8,93,90,86,30.80,30.61,9,0,9,0.09
2013-2-14,49.0,46.1,43.6,45.1,43.2,40.9,92,89,85,30.86,30.80,6,0,6,0.07
2013-2-15,56.5,45.6,39.6,48.6,42.0,37.7,94,87,69,30.85,30.48,5,0,5,0.00
2013-2-16,54.4,44.8,39.4,45.6,41.1,36.9,94,87,65,30.51,30.41,8,1,8,0.29
2013-2-17,47.0,42.0,39.4,41.2,38.6,37.2,93,88,77,30.55,30.42,4,0,4,0.00
2013-2-18,46.6,41.7,37.8,40.2,37.3,34.8,90,85,74,30.42,30.12,6,0,6,0.00
2013-2-20,45.0,40.9,37.6,39.2,37.5,34.2,90,88,77,30.35,30.31,2,0,2,0.03
2013-2-21,44.3,42.5,40.0,40.3,38.9,37.3,92,87,82,30.38,30.31,9,2,9,0.02
2013-2-22,46.1,43.2,40.7,42.3,39.1,35.1,90,85,76,30.36,30.01,13,3,13,0.02
2013-2-23,48.6,43.0,40.0,40.3,37.5,35.2,86,81,67,30.68,30.21,8,1,8,0.00
2013-2-24,47.5,44.5,41.4,40.0,37.6,35.9,84,77,67,30.68,30.26,9,2,9,0.00
2013-2-25,51.3,44.4,38.9,39.6,37.3,33.5,87,76,57,30.61,30.20,12,2,12,0.01
2013-2-26,48.2,43.0,36.4,37.9,34.7,32.1,87,73,57,30.66,30.50,6,1,6,0.01
2013-2-27,49.9,44.5,40.0,43.0,40.3,36.4,92,85,73,30.61,30.51,5,0,5,0.11
2013-2-28,52.7,46.7,43.0,50.0,44.5,40.5,95,92,90,30.64,30.49,8,1,8,0.05
2013-3-1,57.4,54.2,51.8,51.3,50.0,48.8,94,86,79,30.68,30.59,10,2,10,0.00
2013-3-2,57.6,49.8,39.8,49.1,44.8,37.1,90,83,70,30.59,30.38,10,1,10,0.12
2013-3-3,49.7,41.1,35.3,40.7,35.9,30.9,93,83,59,30.61,30.50,5,0,5,0.00
2013-3-4,54.4,42.1,31.0,37.7,30.9,26.4,91,67,41,30.61,30.23,5,0,5,0.00
2013-3-5,52.0,47.2,43.6,38.4,32.8,25.1,80,58,42,30.23,30.03,6,0,6,0.00
2013-3-6,44.5,42.4,40.0,41.5,38.8,35.5,91,87,79,30.21,29.89,6,0,6,0.07
2013-3-7,49.3,43.2,38.5,45.3,40.6,35.8,92,90,85,30.40,30.21,3,0,3,0.00
2013-3-8,53.3,41.4,33.5,44.0,36.8,31.2,93,84,65,30.55,30.38,4,0,4,0.00
2013-3-9,55.8,42.4,32.4,43.0,35.9,29.5,92,79,54,30.80,30.55,6,0,6,0.00
2013-3-10,48.4,43.1,37.4,42.3,38.4,33.2,88,83,77,30.80,30.73,4,0,4,0.00
2013-3-11,52.4,46.5,40.9,44.8,42.3,38.4,92,85,73,30.75,30.47,5,0,5,0.00
2013-3-12,55.3,52.7,47.2,49.7,47.8,44.2,90,84,73,30.47,30.38,13,4,13,0.00
2013-3-13,52.9,52.0,51.1,50.3,48.8,47.3,93,89,84,30.52,30.40,12,2,12,0.00
2013-3-14,53.5,51.0,48.6,50.6,47.8,45.2,93,89,79,30.46,30.33,7,1,7,0.00
2013-3-15,60.5,53.1,49.0,51.0,48.1,45.9,91,83,68,30.52,30.44,7,1,7,0.00
2013-3-16,50.6,48.7,40.3,46.0,43.9,35.2,87,84,72,30.45,30.20,14,3,14,0.00
2013-3-17,51.3,42.0,38.5,37.3,36.0,35.0,89,80,56,30.50,30.29,9,1,9,0.00
2013-3-18,52.7,43.7,39.1,42.6,37.1,33.9,90,78,59,30.55,30.41,15,2,15,0.00
2013-3-19,56.3,43.5,34.9,41.9,35.2,27.6,89,75,34,30.54,29.91,10,2,10,0.00
2013-3-20,51.5,46.9,42.8,48.3,41.9,35.0,95,83,69,30.22,29.71,19,4,19,0.00
2013-3-21,47.2,40.4,36.0,38.3,35.4,33.0,90,83,65,30.53,30.42,9,1,9,0.00
2013-3-22,46.6,38.8,34.6,38.1,33.7,30.4,91,82,62,30.68,30.52,5,0,5,0.01
2013-3-23,52.4,41.2,33.8,36.0,30.6,27.7,84,68,42,30.70,30.61,6,0,6,0.00
2013-3-24,55.4,44.2,32.0,37.3,30.8,27.2,85,62,36,30.61,30.43,5,1,5,0.00
2013-3-25,61.9,48.9,34.9,36.6,31.7,26.7,77,53,30,30.44,30.24,6,0,6,0.00
2013-3-26,61.6,51.3,44.6,43.4,38.0,34.8,75,61,41,30.33,30.26,5,0,5,0.00
2013-3-27,58.0,50.2,44.6,46.6,41.9,37.5,85,73,59,30.29,30.24,4,0,4,0.01
2013-3-28,62.6,51.8,44.1,49.7,44.8,40.7,90,78,59,30.46,30.30,5,0,5,0.03
2013-3-29,66.1,53.4,44.3,49.2,44.3,40.3,88,73,52,30.56,30.46,5,0,5,0.00
2013-3-30,68.0,53.3,40.9,48.3,43.1,37.1,89,70,45,30.57,30.39,5,0,5,0.00
2013-3-31,72.2,55.8,42.3,48.7,43.9,38.1,88,67,40,30.39,30.22,4,0,4,0.00
2013-4-1,63.0,54.2,48.2,50.9,46.4,43.2,88,75,59,30.47,30.27,9,1,9,0.00
2013-4-2,55.6,52.7,49.7,48.2,46.7,44.9,86,80,74,30.51,30.46,7,1,7,0.00
2013-4-3,64.3,54.3,45.9,49.5,45.7,42.6,91,74,53,30.50,30.26,4,0,4,0.00
2013-4-4,56.5,54.5,50.0,53.2,50.4,45.1,92,86,75,30.26,29.95,8,1,8,0.00
2013-4-5,58.7,53.2,49.1,50.9,48.8,45.9,92,85,70,30.18,30.04,12,3,12,0.00
2013-4-6,52.6,48.5,45.4,47.5,44.6,42.0,92,86,75,30.25,30.02,9,2,9,0.00
2013-4-7,46.6,44.1,41.2,43.7,41.6,38.6,93,91,88,30.20,29.80,5,0,5,0.00
2013-4-8,52.9,47.1,43.2,48.1,44.1,40.8,92,89,78,30.58,30.20,4,0,4,0.00
2013-4-9,54.9,49.6,43.7,45.9,43.9,41.0,91,81,67,30.66,30.49,6,0,6,0.00
2013-4-10,58.0,51.9,48.1,52.1,47.2,43.7,93,84,73,30.55,30.25,12,2,12,0.02
2013-4-11,51.7,47.5,44.3,44.7,42.3,38.3,91,82,71,30.61,30.50,7,0,7,0.00
2013-4-12,48.1,44.1,40.7,43.1,39.7,37.1,91,85,73,30.50,29.98,14,1,14,0.00
2013-4-13,49.3,43.6,36.7,43.6,39.6,33.9,91,86,74,30.31,30.08,10,2,10,0.00
2013-4-14,54.2,45.6,39.6,43.2,39.2,36.9,92,79,55,30.32,30.22,6,0,6,0.01
2013-4-15,54.9,45.3,40.0,42.3,39.2,35.8,89,80,57,30.48,30.26,7,0,7,0.00
2013-4-16,55.4,45.3,36.5,44.1,38.8,33.6,92,79,59,30.70,30.49,5,0,5,0.01
2013-4-17,62.3,49.4,38.5,42.5,37.7,33.3,85,66,37,30.76,30.70,7,1,7,0.01
2013-4-18,50.9,48.3,45.2,46.7,42.3,37.9,89,80,72,30.76,30.52,7,1,7,0.00
2013-4-19,54.2,51.3,48.8,51.8,48.7,46.3,93,91,89,30.52,30.37,9,2,9,0.00
2013-4-20,53.6,49.4,47.3,48.6,46.1,44.2,92,88,77,30.59,30.50,8,1,8,0.00
2013-4-21,53.3,47.5,42.8,48.1,43.6,38.6,92,87,72,30.68,30.54,4,0,4,0.00
2013-4-22,61.4,48.2,36.7,43.8,36.3,28.7,92,68,32,30.82,30.67,8,0,8,0.01
2013-4-23,63.4,50.0,37.4,42.2,35.6,28.2,84,61,29,30.74,30.55,5,0,5,0.00
2013-4-24,70.2,54.5,40.0,44.7,37.5,32.0,84,57,28,30.63,30.38,5,0,5,0.00
2013-4-25,71.8,57.5,43.9,43.4,39.7,35.5,76,54,33,30.45,30.35,5,0,5,0.00
2013-4-26,68.6,57.4,47.2,50.0,46.0,41.7,84,67,48,30.56,30.45,6,0,6,0.00
2013-4-27,56.3,54.0,50.4,48.7,44.2,37.7,86,70,53,30.54,30.46,10,2,10,0.00
2013-4-28,58.7,51.8,47.5,49.3,44.7,39.2,90,78,57,30.53,30.25,11,2,11,0.00
2013-4-29,55.3,47.8,43.0,46.2,41.3,36.8,90,79,57,30.48,30.22,9,1,9,0.00
2013-4-30,55.3,45.6,37.6,41.2,36.1,30.3,90,72,39,30.75,30.48,5,0,5,0.00
2013-5-1,64.4,50.2,36.2,38.9,34.7,29.4,84,59,30,30.88,30.75,5,0,5,0.01
2013-5-2,69.8,55.3,42.7,45.4,39.8,35.8,79,58,37,30.86,30.68,5,0,5,0.00
2013-5-3,70.2,57.0,44.3,49.4,43.7,37.9,81,63,45,30.71,30.54,5,0,5,0.00
2013-5-4,78.8,61.8,47.2,52.2,44.7,36.6,82,58,26,30.55,30.32,8,0,8,0.01
2013-5-5,83.2,65.5,49.5,51.8,45.9,41.0,78,53,25,30.32,30.09,5,1,5,0.00
2013-5-6,86.8,68.6,52.6,50.1,45.1,41.0,74,46,22,30.17,30.06,6,1,6,0.00
2013-5-7,71.6,62.2,53.5,53.7,50.1,45.8,82,66,50,30.32,30.14,8,1,8,0.00
2013-5-8,64.4,57.8,52.7,53.3,50.2,47.0,82,76,65,30.46,30.32,6,1,6,0.00
2013-5-9,70.9,59.9,50.8,57.1,51.4,46.6,88,75,55,30.53,30.43,5,0,5,0.00
2013-5-10,79.6,63.8,49.3,58.2,51.5,44.9,87,67,43,30.52,30.42,6,0,6,0.00
2013-5-11,81.9,67.5,57.1,55.8,51.0,43.3,78,57,38,30.49,30.30,8,1,8,0.00
2013-5-12,71.6,64.3,58.7,59.4,55.8,51.0,88,75,56,30.43,30.33,7,1,7,0.10
2013-5-13,65.2,57.7,50.8,57.1,51.4,41.5,88,80,61,30.50,30.24,16,2,16,0.04
2013-5-14,63.9,55.2,47.9,45.0,42.6,39.5,80,64,42,30.54,30.43,8,1,8,0.01
2013-5-15,66.6,55.2,46.3,49.3,45.0,39.5,87,69,45,30.44,30.34,8,0,8,0.00
2013-5-16,70.2,60.3,52.4,53.8,50.9,49.1,89,73,52,30.34,30.17,6,1,6,0.01
2013-5-17,61.6,57.1,53.5,53.1,49.9,47.8,87,77,63,30.37,30.27,9,1,9,0.00
2013-5-18,61.2,56.7,53.3,48.5,47.4,44.7,80,71,61,30.58,30.37,6,1,6,0.00
2013-5-19,63.7,57.4,52.9,51.7,49.0,46.1,83,74,64,30.71,30.58,5,0,5,0.00
2013-5-20,61.7,52.8,47.5,49.1,45.5,43.2,85,76,63,30.67,30.22,3,0,3,0.01
2013-5-21,58.7,51.7,47.5,49.7,45.5,42.7,88,79,65,30.22,30.08,9,1,9,0.00
2013-5-22,52.9,48.3,44.3,47.0,44.3,41.0,90,86,78,30.25,30.17,5,0,5,0.00
2013-5-23,58.7,50.4,45.9,47.6,45.0,43.1,91,82,62,30.33,30.24,8,1,8,0.00
2013-5-24,62.8,54.0,46.6,49.5,46.2,43.3,91,76,51,30.37,30.28,7,1,7,0.00
2013-5-25,65.5,56.3,51.1,48.3,46.6,43.8,83,71,50,30.36,30.28,7,1,7,0.01
2013-5-26,66.2,57.0,51.8,54.5,50.1,45.7,87,78,60,30.30,30.25,7,1,7,0.00
2013-5-27,59.6,56.1,51.5,54.7,51.7,47.7,89,85,80,30.28,30.03,7,1,7,0.00
2013-5-28,63.0,56.7,52.7,52.2,50.4,48.5,89,80,62,30.20,30.08,8,1,8,0.00
2013-5-29,60.1,54.0,50.6,52.9,49.2,47.1,90,84,69,30.28,29.99,10,1,10,0.00
2013-5-30,63.0,55.6,49.7,48.2,46.3,43.1,83,72,53,30.56,30.28,9,2,9,0.00
2013-5-31,67.7,58.0,52.6,49.9,46.4,42.8,81,66,45,30.65,30.56,5,0,5,0.01
2013-6-1,72.7,60.6,51.5,52.0,47.6,44.0,80,64,38,30.56,30.36,5,1,6,0.00
2013-6-2,69.1,60.7,53.8,52.5,49.5,46.4,85,68,49,30.41,30.36,7,0,7,0.01
2013-6-3,71.6,61.2,52.0,54.1,50.4,46.9,84,69,50,30.44,30.37,6,1,6,0.00
2013-6-4,80.3,65.2,51.5,57.1,51.3,46.8,86,63,40,30.44,30.33,6,0,6,0.00
2013-6-5,79.2,65.7,54.7,57.9,52.0,44.9,76,62,45,30.40,30.34,5,0,5,0.00
2013-6-6,81.0,65.7,54.0,58.2,50.5,43.2,83,61,35,30.37,30.32,6,1,6,0.00
2013-6-7,68.0,61.8,57.2,54.3,47.2,41.3,70,59,44,30.47,30.34,8,1,8,0.00
2013-6-8,68.9,59.8,53.8,52.6,48.4,45.6,75,66,54,30.51,30.42,6,1,6,0.00
2013-6-9,70.7,58.3,52.2,49.6,46.7,43.7,79,66,43,30.43,30.34,6,1,6,0.00
2013-6-10,70.4,56.6,49.5,50.4,45.1,42.2,80,66,42,30.36,30.20,5,1,5,0.00
2013-6-11,64.1,57.1,53.3,52.8,46.1,44.1,83,67,52,30.42,30.26,8,2,8,0.08
2013-6-12,67.9,59.2,53.8,48.6,46.4,44.3,76,63,45,30.46,30.41,9,2,9,0.01
2013-6-13,65.9,58.7,53.3,52.7,49.5,46.5,85,72,52,30.53,30.45,6,1,6,0.04
2013-6-14,64.3,58.9,54.9,50.2,48.2,46.6,76,68,56,30.55,30.37,6,1,6,0.00
2013-6-15,77.8,66.7,51.8,55.8,52.7,46.4,86,62,42,30.37,30.22,4,1,4,0.00
2013-6-16,76.7,64.6,57.2,60.3,53.9,49.7,83,69,48,30.41,30.30,6,1,6,0.08
2013-6-17,78.1,65.5,57.2,56.6,52.0,48.2,81,64,40,30.41,30.20,10,1,10,0.03
2013-6-18,72.7,62.6,56.9,53.3,50.7,44.6,85,68,39,30.30,30.19,7,1,7,0.00
2013-6-19,64.3,60.1,56.2,56.2,51.5,48.2,79,73,65,30.33,30.24,5,1,5,0.00
2013-6-20,59.4,56.3,53.6,53.9,51.1,48.8,90,83,70,30.43,30.27,7,1,7,0.00
2013-6-21,65.7,59.9,53.5,56.2,53.8,50.7,91,81,67,30.48,30.42,4,0,4,0.01
2013-6-22,78.1,62.1,52.0,57.2,52.2,48.7,89,73,40,30.44,30.17,6,1,6,0.01
2013-6-23,69.7,65.1,60.5,62.9,58.4,53.6,88,79,70,30.17,29.91,4,0,4,0.06
2013-6-24,65.7,62.1,57.6,59.5,56.1,53.1,91,81,68,30.02,29.90,8,1,8,0.01
2013-6-25,72.2,61.3,56.7,60.4,55.4,52.2,91,82,50,30.18,29.99,11,1,11,0.10
2013-6-26,70.6,60.7,56.5,63.0,56.4,53.3,92,86,62,30.40,30.17,8,0,8,0.03
2013-6-27,69.8,63.9,59.8,63.5,59.6,56.1,90,86,75,30.52,30.36,3,0,3,0.01
2013-6-28,87.5,75.6,61.4,66.3,62.4,58.5,90,67,42,30.51,30.35,6,1,6,0.00
2013-6-29,84.2,73.2,65.0,63.7,60.9,58.7,84,67,45,30.42,30.30,5,1,6,0.00
2013-6-30,92.2,75.0,61.6,68.0,61.5,55.6,84,65,40,30.33,30.17,5,0,5,0.00
2013-7-1,87.3,73.0,65.9,64.7,60.4,57.3,75,65,46,30.34,30.23,3,0,5,0.00
2013-7-2,83.0,70.4,63.2,62.0,55.3,50.0,75,60,35,30.42,30.34,6,1,6,0.00
2013-7-3,79.4,68.0,59.8,56.3,50.6,45.1,65,54,38,30.47,30.35,6,1,6,0.02
2013-7-4,70.7,63.6,58.0,54.7,51.6,47.5,76,65,55,30.44,30.34,7,1,7,0.01
2013-7-5,75.6,65.1,57.2,56.5,53.5,50.4,79,67,49,30.35,30.27,6,1,6,0.00
2013-7-6,79.4,67.4,57.2,59.0,54.9,52.1,85,66,44,30.29,30.17,5,1,5,0.03
2013-7-7,76.1,67.4,58.7,60.5,56.1,51.4,81,68,53,30.26,30.19,8,1,8,0.00
2013-7-8,78.8,68.7,59.4,59.6,55.9,52.4,79,65,50,30.40,30.26,5,1,5,0.02
2013-7-9,85.7,68.7,59.0,60.8,55.2,50.0,83,64,40,30.42,30.32,5,1,5,0.00
2013-7-10,71.8,64.4,58.5,57.5,53.1,48.3,76,67,59,30.37,30.26,7,1,7,0.02
2013-7-11,71.6,61.6,56.7,53.1,48.7,45.3,78,64,47,30.40,30.31,7,1,7,0.00
2013-7-12,68.4,60.1,52.7,53.5,49.2,44.5,76,68,56,30.42,30.33,5,0,5,0.00
2013-7-13,77.4,65.5,50.4,53.6,49.3,44.5,82,58,38,30.51,30.42,5,1,5,0.00
2013-7-14,83.3,66.3,52.6,55.8,48.2,43.5,81,55,32,30.45,30.30,7,1,7,0.00
2013-7-15,80.8,67.0,54.4,55.3,49.8,45.8,79,56,34,30.37,30.22,6,1,6,0.00
2013-7-16,86.9,72.0,57.2,57.8,53.0,47.0,75,53,32,30.23,30.11,5,0,5,0.04
2013-7-17,70.9,66.6,62.1,59.2,56.0,53.7,77,69,61,30.50,30.20,8,2,8,0.02
2013-7-18,78.8,66.9,60.1,60.1,55.9,53.1,79,69,51,30.54,30.43,5,0,5,0.00
2013-7-19,81.2,66.8,56.0,62.4,56.1,50.5,85,70,50,30.49,30.35,6,1,6,0.00
2013-7-20,75.2,65.9,58.0,60.7,56.3,51.5,86,72,58,30.41,30.27,5,0,5,0.00
2013-7-21,76.3,65.9,59.2,61.2,56.8,53.3,84,73,57,30.30,30.22,7,1,7,0.00
2013-7-22,77.8,66.9,58.7,61.6,57.2,54.2,86,72,55,30.38,30.25,6,1,6,0.00
2013-7-23,85.9,70.2,58.0,62.0,55.6,52.3,85,63,35,30.38,30.28,5,0,5,0.00
2013-7-24,86.0,70.4,58.3,57.9,53.3,46.7,79,57,34,30.37,30.31,7,1,7,0.00
2013-7-25,85.7,69.5,56.0,56.4,50.1,44.7,75,53,27,30.42,30.35,5,1,6,0.00
2013-7-26,86.8,69.2,56.5,56.9,49.6,40.8,76,53,28,30.47,30.39,8,1,8,0.04
2013-7-27,78.7,66.2,55.4,54.9,50.1,45.0,76,57,40,30.48,30.31,8,1,8,0.02
2013-7-28,73.6,63.6,56.3,55.9,52.3,49.4,81,67,51,30.35,30.28,8,1,8,0.00
2013-7-29,74.0,64.9,58.5,56.6,53.5,50.4,76,67,52,30.33,30.27,6,1,6,0.00
2013-7-30,76.9,67.2,58.9,58.5,55.4,51.8,80,67,51,30.45,30.33,6,1,6,0.00
2013-7-31,70.6,63.7,59.8,61.0,57.2,53.5,89,79,67,30.44,30.31,4,0,5,0.02
2013-8-1,65.9,61.9,57.6,59.6,55.4,53.5,88,80,70,30.39,30.35,6,1,6,0.01
2013-8-2,61.9,60.3,58.7,58.5,56.0,53.6,92,86,76,30.45,30.38,7,1,7,0.02
2013-8-3,71.5,64.4,59.4,61.9,59.0,56.1,92,83,66,30.45,30.36,5,0,5,0.02
2013-8-4,80.8,68.2,57.8,63.6,58.5,53.7,89,73,53,30.38,30.25,5,0,5,0.00
2013-8-5,85.0,70.7,59.0,62.0,57.2,54.2,86,65,39,30.33,30.24,5,0,5,0.00
2013-8-6,85.5,71.4,59.0,60.4,54.3,49.7,78,57,31,30.32,30.22,5,0,5,0.00
2013-8-7,85.7,70.8,58.7,60.4,54.6,51.5,80,59,35,30.32,30.26,7,0,7,0.00
2013-8-8,82.4,69.9,60.8,60.9,56.5,52.6,79,63,47,30.35,30.26,6,1,6,0.00
2013-8-9,82.8,71.0,61.2,59.1,55.7,51.2,74,60,43,30.28,30.15,6,0,6,0.00
2013-8-10,78.7,69.3,61.9,64.1,60.4,56.9,87,74,59,30.34,30.20,8,1,8,0.00
2013-8-11,77.8,68.0,59.8,59.8,56.2,53.5,82,67,48,30.38,30.30,7,1,7,0.00
2013-8-12,77.8,67.8,59.6,58.1,55.3,52.7,80,66,49,30.39,30.32,6,1,6,0.00
2013-8-13,81.7,69.5,59.6,58.0,54.5,50.9,80,61,38,30.42,30.25,6,0,6,0.00
2013-8-14,83.9,68.5,59.2,60.4,56.7,52.9,82,68,40,30.29,30.22,5,0,5,0.00
2013-8-15,69.3,66.9,64.4,65.3,62.7,59.9,92,86,82,30.32,30.24,3,0,3,0.00
2013-8-16,84.2,72.0,64.1,66.4,60.2,46.7,92,70,30,30.33,30.26,8,1,8,0.00
2013-8-17,78.1,70.2,63.9,60.8,57.1,54.5,74,64,52,30.39,30.32,6,1,6,0.00
2013-8-18,79.4,66.9,62.1,59.1,55.5,51.5,79,68,48,30.44,30.38,7,1,7,0.00
2013-8-19,78.8,67.9,60.5,59.1,54.1,49.8,74,62,48,30.44,30.37,6,1,6,0.00
2013-8-20,78.1,66.6,58.7,57.1,51.3,48.2,73,59,43,30.48,30.38,8,1,8,0.00
2013-8-21,81.0,67.2,53.3,56.3,51.7,46.8,80,59,39,30.42,30.25,6,1,6,0.00
2013-8-22,85.0,70.0,56.9,59.1,54.2,49.3,79,59,37,30.27,30.11,4,0,4,0.00
2013-8-23,74.5,67.8,63.7,58.3,55.7,53.8,75,66,54,30.22,30.14,10,2,10,0.00
2013-8-24,74.2,66.4,60.5,57.8,54.7,50.8,82,67,46,30.24,30.17,6,1,6,0.00
2013-8-25,72.9,63.4,54.7,57.7,54.0,49.0,83,72,56,30.26,30.18,4,0,4,0.00
2013-8-26,76.5,65.5,60.3,59.8,56.6,51.0,83,74,46,30.27,30.17,8,0,8,0.00
2013-8-27,81.2,68.9,61.7,61.1,58.2,56.0,85,70,49,30.27,30.10,6,1,6,0.00
2013-8-28,77.6,68.0,60.3,65.2,60.1,55.6,90,77,59,30.21,30.14,7,0,7,0.00
2013-8-29,74.0,69.9,65.5,66.3,63.5,60.2,86,80,74,30.33,30.17,4,0,4,0.00
2013-8-30,77.2,67.8,61.4,63.1,57.6,52.0,86,71,45,30.47,30.33,6,1,6,0.00
2013-8-31,81.4,66.3,54.7,60.4,55.7,50.6,88,70,45,30.40,30.15,5,0,5,0.00
2013-9-1,81.0,68.7,58.7,61.5,57.2,54.2,87,68,48,30.20,30.11,7,1,7,0.00
2013-9-2,81.4,70.0,60.8,61.1,57.0,54.3,82,65,46,30.27,30.18,5,0,5,0.00
2013-9-3,71.5,65.7,61.6,63.9,59.7,56.0,90,81,67,30.34,30.25,4,0,4,0.00
2013-9-4,73.1,64.0,59.8,72.8,60.6,56.5,99,89,80,30.37,30.30,4,0,4,0.00
2013-9-5,81.0,67.2,61.2,78.6,65.5,59.9,99,94,80,30.37,30.23,5,0,5,0.00
2013-9-6,95.0,79.9,66.2,94.7,79.3,66.0,99,98,89,30.43,30.26,5,1,5,0.00
2013-9-7,94.1,90.1,86.8,93.8,89.8,86.4,99,99,99,30.42,30.42,0,0,0,0.00
2013-9-14,91.6,50.7,-26.3,91.3,50.1,-30.4,99,98,80,30.18,30.05,2,0,2,0.00
2013-9-15,32.6,-29.8,-39.2,32.3,-33.4,-45.2,99,81,70,30.13,30.02,0,0,0,0.00
2013-9-16,-39.2,-39.2,-39.2,-43.8,-44.1,-44.5,76,74,73,30.16,30.12,0,0,0,0.00
2013-9-22,63.9,59.2,55.8,55.7,52.7,48.2,88,79,59,30.05,29.89,14,3,14,0.00
2013-9-23,61.9,57.3,51.5,54.6,51.6,48.6,92,82,72,30.27,30.05,11,3,11,0.00
2013-9-24,65.0,55.4,50.8,52.2,49.0,46.3,92,80,54,30.27,30.14,7,1,7,0.00
2013-9-25,58.9,52.9,49.1,51.2,48.4,45.3,90,85,71,30.34,30.16,4,0,4,0.00
2013-9-26,63.0,52.6,45.0,52.9,47.1,42.3,92,82,64,30.44,30.34,4,0,4,0.00
2013-9-27,57.2,54.8,51.5,52.7,49.9,46.6,88,83,80,30.43,30.15,7,1,7,0.00
2013-9-28,61.2,56.3,52.4,58.0,53.3,49.1,95,90,83,30.16,29.66,13,2,13,0.00
2013-9-29,55.8,53.7,52.2,52.1,49.4,48.0,94,85,78,29.88,29.48,13,3,13,0.00
2013-9-30,56.9,52.3,49.1,51.0,47.9,45.1,91,85,78,30.23,29.74,14,4,14,0.00
2013-10-1,58.0,51.7,47.7,49.0,46.4,43.4,90,82,69,30.42,30.22,8,2,8,0.00
2013-10-2,54.4,51.7,49.3,48.8,47.5,46.4,91,85,80,30.48,30.36,12,1,12,0.00
2013-10-3,56.0,51.1,47.5,50.6,48.0,45.1,93,89,79,30.76,30.48,3,0,3,0.00
2013-10-4,62.8,50.8,40.3,51.6,45.3,38.2,93,82,59,30.78,30.65,3,0,3,0.00
2013-10-5,69.7,55.0,44.3,54.6,47.1,41.3,91,76,45,30.66,30.44,4,0,4,0.00
2013-10-6,75.8,57.8,45.7,55.9,47.1,42.4,91,71,34,30.43,30.19,10,1,10,0.00
2013-10-7,61.6,55.9,52.9,51.2,48.9,45.5,89,78,61,30.32,30.21,10,3,10,0.00
2013-10-8,56.3,51.7,46.4,49.5,46.5,42.9,88,82,73,30.38,30.27,5,1,5,0.00
2013-10-9,58.0,49.7,41.8,48.6,44.2,38.8,92,82,65,30.44,30.26,4,0,4,0.00
2013-10-10,58.7,52.9,47.0,49.9,47.5,43.4,89,82,71,30.38,30.24,4,0,4,0.00
2013-10-11,54.7,52.1,49.5,51.0,49.0,46.5,92,89,86,30.45,30.37,3,0,3,0.00
2013-10-12,58.1,51.3,46.4,51.7,47.4,43.5,93,87,72,30.52,30.37,4,0,4,0.00
2013-10-13,55.4,47.9,41.9,49.1,44.7,39.5,93,88,78,30.67,30.52,5,0,5,0.00
2013-10-14,59.0,47.0,37.6,51.3,42.8,35.1,94,86,69,30.73,30.66,5,0,5,0.00
2013-10-15,56.2,51.9,50.0,50.7,47.8,46.5,88,86,82,30.50,30.48,1,0,1,0.00
2013-10-16,53.1,50.1,46.3,49.0,46.8,43.8,92,89,85,30.51,30.45,2,0,4,0.00
2013-10-17,54.4,49.8,45.9,49.6,46.5,43.5,91,89,82,30.58,30.51,4,0,4,0.00
2013-10-18,61.0,48.7,41.9,53.7,45.3,39.8,94,88,74,30.56,30.45,4,0,4,0.00
2013-10-19,50.9,47.0,43.9,48.1,44.7,42.0,94,92,89,30.50,30.45,3,0,3,0.00
2013-10-20,49.5,47.7,46.4,47.0,45.6,44.6,93,92,90,30.51,30.46,3,0,3,0.00
2013-10-21,51.8,48.2,45.7,49.2,46.1,43.8,94,93,89,30.48,30.40,3,0,3,0.00
2013-10-22,54.7,48.7,46.4,51.2,46.8,44.6,95,93,87,30.43,30.34,4,0,4,0.00
2013-10-23,60.1,48.8,42.5,53.8,46.2,40.9,95,91,79,30.36,30.28,4,0,4,0.00
2013-10-24,51.8,48.2,45.4,49.5,46.2,43.5,94,93,90,30.43,30.33,2,0,2,0.00
2013-10-25,52.2,49.4,46.3,49.6,47.2,44.1,94,92,89,30.62,30.43,4,0,4,0.00
2013-10-26,52.2,49.4,46.1,48.2,46.5,44.2,94,90,83,30.64,30.49,3,0,3,0.00
2013-10-27,53.1,48.8,43.9,50.8,46.4,41.8,94,91,88,30.50,30.21,4,0,4,0.00
2013-10-28,58.5,47.2,40.0,48.4,40.6,37.0,95,79,50,30.26,30.18,5,0,5,0.00
2013-10-29,56.5,44.6,35.8,44.1,37.8,32.6,90,78,57,30.34,30.25,4,0,4,0.00
2013-10-30,56.5,48.3,39.6,46.9,41.4,34.6,85,77,68,30.43,30.33,6,1,6,0.00
2013-10-31,54.5,51.7,50.0,50.8,47.4,43.1,92,85,73,30.56,30.40,7,1,7,0.00
2013-11-1,60.3,54.4,50.4,53.1,50.4,47.8,93,87,74,30.58,30.14,4,0,4,0.00
2013-11-2,54.4,51.5,46.1,50.7,47.9,41.2,93,88,79,30.19,29.80,22,2,22,0.00
2013-11-3,55.1,45.5,40.3,44.0,40.4,36.5,88,82,59,30.41,30.19,6,1,6,0.00
2013-11-4,50.2,43.1,35.1,41.9,37.4,32.1,90,81,63,30.50,30.36,5,0,5,0.00
2013-11-5,54.4,47.7,43.4,49.4,44.1,39.4,94,87,75,30.56,30.31,9,1,9,0.00
2013-11-6,51.3,47.6,44.3,48.0,45.0,41.9,93,91,86,30.62,30.33,4,0,4,0.00
2013-11-7,50.8,49.2,48.4,48.2,46.5,45.3,94,91,83,30.33,30.01,12,2,12,0.00
2013-11-8,53.8,49.3,45.9,46.3,44.9,42.4,91,85,74,30.47,30.28,8,1,8,0.00
2013-11-9,51.5,46.0,39.6,46.5,42.8,36.9,92,88,82,30.46,30.37,3,0,3,0.00
2013-11-10,50.0,48.1,45.7,47.2,45.6,43.3,94,91,88,30.46,30.42,2,0,2,0.00
2013-11-11,58.9,49.6,42.3,51.7,44.7,40.2,94,84,61,30.46,30.30,5,0,5,0.00
2013-11-12,59.0,52.5,49.0,55.1,48.9,43.0,94,87,75,30.67,30.33,11,1,11,0.00
2013-11-13,58.0,53.0,49.7,50.8,48.6,45.6,89,85,76,30.74,30.61,8,1,8,0.00
2013-11-14,50.4,47.9,45.2,47.6,45.4,43.0,94,91,86,30.61,30.36,2,0,2,0.00
2013-11-15,47.9,45.2,43.6,45.5,43.0,41.1,93,92,88,30.37,29.63,14,2,14,0.00
2013-11-16,48.2,44.7,41.2,43.2,40.3,38.3,93,85,71,30.08,29.66,9,2,9,0.00
2013-11-17,52.0,47.9,44.3,47.1,43.5,39.2,90,85,80,30.21,30.07,12,3,12,0.00
2013-11-18,52.4,49.5,47.7,50.0,47.0,44.9,92,91,88,30.21,29.86,7,2,7,0.00
2013-11-19,53.8,44.8,37.6,51.3,41.0,28.2,92,87,65,30.37,29.86,12,1,12,0.00
2013-11-20,43.7,37.2,31.3,33.3,29.3,26.3,87,74,55,30.81,30.37,4,1,4,0.00
2013-11-21,43.2,33.7,27.9,31.6,27.0,24.8,89,77,54,30.97,30.81,5,0,5,0.00
2013-11-22,46.8,34.9,28.4,35.8,28.7,24.8,88,79,58,30.95,30.75,4,0,4,0.00
2013-11-23,50.6,37.8,30.6,39.6,31.8,27.2,88,80,59,30.75,30.50,5,0,5,0.00
2013-11-24,51.3,39.7,32.2,39.5,34.1,29.1,89,81,57,30.56,30.46,5,0,5,0.00
2013-11-25,53.5,41.3,33.5,43.8,36.3,30.2,90,83,68,30.62,30.56,2,0,3,0.00
2013-11-26,49.9,40.4,33.7,41.9,35.8,30.7,90,84,72,30.58,30.40,2,0,2,0.00
2013-11-27,55.4,45.6,39.8,44.9,39.5,35.7,86,80,64,30.41,30.26,4,0,4,0.00
2013-11-28,51.5,41.4,34.2,44.4,37.4,31.2,91,86,74,30.49,30.33,3,0,3,0.00
2013-11-29,47.3,44.0,39.1,44.6,41.0,35.6,91,89,87,30.62,30.48,2,0,2,0.00
2013-11-30,51.3,48.8,46.1,47.6,45.1,43.4,92,87,79,30.64,30.40,7,1,7,0.00
2013-12-1,53.6,52.0,42.8,50.9,48.6,38.9,94,88,83,30.40,30.06,16,4,16,0.00
2013-12-2,45.9,39.9,37.4,38.9,35.7,33.9,91,85,63,30.35,30.12,6,0,6,0.00
2013-12-3,40.0,35.0,29.9,35.3,28.7,25.4,90,78,60,30.62,30.35,5,0,5,0.00
2013-12-4,38.3,30.8,25.9,30.3,25.3,22.6,88,80,61,30.65,30.59,4,0,4,0.00
2013-12-5,33.7,29.0,25.0,25.4,22.2,17.3,85,76,59,30.63,30.50,4,0,4,0.00
2013-12-6,34.6,27.9,22.5,19.4,14.5,9.5,70,57,41,30.54,30.44,6,0,6,0.00
2013-12-7,30.2,23.3,18.0,14.7,10.3,8.5,70,58,40,30.73,30.53,4,0,4,0.00
2013-12-8,33.5,25.7,18.9,18.5,14.7,9.5,72,63,47,30.88,30.72,4,0,4,0.00
2013-12-9,33.1,28.7,22.0,24.0,20.0,14.5,75,70,64,30.88,30.79,1,0,1,0.00
2013-12-10,39.2,35.3,32.0,32.7,28.8,23.6,82,77,70,30.80,30.72,0,0,0,0.00
2013-12-11,40.3,34.6,29.9,34.5,30.1,26.5,87,84,79,30.72,30.48,1,0,1,0.00
2013-12-12,42.1,37.3,31.3,39.9,34.2,28.5,94,88,78,30.47,30.36,3,0,3,0.00
2013-12-13,47.2,44.6,41.4,45.5,42.8,39.5,94,93,93,30.71,30.44,2,0,2,0.00
2013-12-14,48.6,47.2,44.8,44.4,43.9,42.7,93,88,85,30.70,30.64,5,1,5,0.00
2013-12-15,50.9,49.2,47.5,47.6,46.3,43.9,93,90,84,30.76,30.63,8,2,8,0.00
2013-12-16,47.3,44.3,40.9,45.5,42.3,39.0,94,93,91,30.80,30.58,1,0,1,0.00
2013-12-17,44.6,41.3,38.7,42.8,39.4,36.8,94,93,93,30.58,30.42,2,0,2,0.00
2013-12-18,44.3,40.7,33.7,42.4,38.6,31.8,94,92,91,30.46,30.34,1,0,1,0.00
2013-12-19,38.5,33.1,29.5,33.5,30.3,27.6,93,89,82,30.64,30.45,2,0,2,0.00
2013-12-20,40.7,35.7,32.4,39.1,33.4,29.5,95,91,86,30.50,30.03,2,0,2,0.00
2013-12-21,45.0,41.8,39.4,43.4,40.1,37.5,94,93,93,30.47,30.14,2,0,2,0.00
2013-12-22,49.7,47.1,44.5,48.2,45.6,42.8,95,95,94,30.60,30.47,5,1,5,0.00
2013-12-23,52.6,48.3,43.2,48.2,45.9,41.0,94,91,84,30.81,30.43,10,3,10,0.00
2013-12-24,47.3,41.2,35.5,44.1,39.0,33.3,95,92,84,30.92,30.82,4,0,4,0.00
2013-12-25,38.2,34.9,32.9,36.3,32.9,30.9,94,93,92,30.84,30.71,1,0,1,0.00
2013-12-26,44.3,37.6,34.0,41.6,35.6,32.1,94,93,90,30.70,30.51,2,0,2,0.00
2013-12-27,45.4,39.7,33.7,43.0,38.0,31.8,95,94,90,30.67,30.43,1,0,1,0.00
2013-12-28,47.2,43.1,39.2,45.5,41.3,37.4,95,93,91,30.82,30.67,1,0,1,0.00
2013-12-29,42.7,40.2,38.5,40.8,38.4,36.6,94,93,92,30.79,30.61,1,0,1,0.00
2013-12-30,43.9,40.5,37.1,42.0,38.8,35.2,95,94,93,30.62,30.44,2,0,2,0.00
2013-12-31,46.4,44.1,41.0,44.8,42.2,39.4,94,93,90,30.68,30.50,2,0,2,0.00
2014-1-1,44.1,40.4,34.6,42.2,38.6,32.9,95,93,92,30.71,30.56,2,0,2,0.00
2014-1-2,49.0,44.9,41.9,45.0,42.6,40.3,95,91,82,30.55,30.21,7,1,7,0.00